Content
SEND FEEDBACK

Daily
Averages
Monthly
Summary
United States of America

STATEN ISLAND, NEW YORK


Home > North America > United States > New York
Elevation: 152 feet     Latitude: 40 35N     Longitude: 074 09W

WEATHER
 
SELECT A DAY
Number of Records: 192,381;   Date Range: 1/1/95 - 10/21/14
 
SHARE

PRINT THIS DATA

[ ← Previous Day ]
WEATHER ALMANAC - MAY 3, 2013
[ Next Day → ]
[ °C ]   °F
Weather ElementAverageHighLow
Temperature55.9 °F61 °F (1:51 pm)51.1 °F (9:51 pm)
Dewpoint39.5 °F45 °F (2:51 am)35.1 °F (5:51 am)
Humidity55.4 %77 % (9:51 pm)39 % (10:51 am)
Barometer30.42 in30.46 in (8:51 am)30.38 in (4:51 pm)
Wind Speed8.8 mph16.1 mph (5:51 am)
Wind Gust20.7 mph (5:51 am)
Weather ElementAverage
Visibility10 mi
Wind DirectionE (90.4 °)

Weather ElementTotal
Precipitation---
Heating Degree Days9 (Base 65)
Growing Degree Days6.1 (Base 50)
Averaged from 23 records on May 3, 2013
WEATHER CONDITIONS BREAKOUT
WIND DIRECTION BREAKOUT
WEATHER BY HOUR - MAY 3, 2013
[ °C ]   °F
Local TimeTemperatureDewpointHumidityBarometerVisibilityWind DirectionWind SpeedGust SpeedPrecipitationEventsConditions
1:51 AM57.0 °F43.0 °F59 %30.39 in10.0 miEast (80°)4.6 mphPartly Cloudy
2:51 AM55.0 °F45.0 °F69 %30.41 in10.0 miEast (90°)10.4 mphPartly Cloudy
3:51 AM55.0 °F39.9 °F57 %30.42 in10.0 miENE (70°)8.1 mphMostly Cloudy
4:51 AM55.0 °F39.0 °F55 %30.43 in10.0 miENE (70°)6.9 mphMostly Cloudy
5:51 AM54.0 °F35.1 °F49 %30.44 in10.0 miENE (70°)16.1 mph20.7 mphMostly Cloudy
6:51 AM54.0 °F35.1 °F49 %30.45 in10.0 miNE (50°)13.8 mphMostly Cloudy
7:51 AM55.0 °F35.1 °F47 %30.45 in10.0 miENE (60°)11.5 mphScattered Clouds
8:51 AM57.0 °F36.0 °F45 %30.46 in10.0 miNE (50°)10.4 mphPartly Cloudy
9:51 AM57.0 °F35.1 °F44 %30.46 in10.0 miENE (70°)11.5 mphClear
10:51 AM60.1 °F35.1 °F39 %30.46 in10.0 miENE (60°)11.5 mphScattered Clouds
11:51 AM60.1 °F36.0 °F41 %30.45 in10.0 miNE (50°)9.2 mphScattered Clouds
12:51 PM60.1 °F35.1 °F39 %30.43 in10.0 miNNE (30°)5.8 mphScattered Clouds
1:51 PM61.0 °F39.9 °F46 %30.42 in10.0 miSE (130°)10.4 mphScattered Clouds
2:51 PM61.0 °F39.0 °F44 %30.40 in10.0 miVariable5.8 mphScattered Clouds
3:51 PM60.1 °F39.0 °F46 %30.39 in10.0 miSSE (150°)10.4 mph17.3 mphPartly Cloudy
4:51 PM57.9 °F39.0 °F49 %30.38 in10.0 miSE (140°)11.5 mphPartly Cloudy
5:51 PM55.9 °F42.1 °F60 %30.38 in10.0 miSE (140°)11.5 mphPartly Cloudy
6:51 PM54.0 °F42.1 °F64 %30.38 in10.0 miSSE (150°)11.5 mphScattered Clouds
7:51 PM52.0 °F43.0 °F71 %30.39 in10.0 miSouth (170°)6.9 mphScattered Clouds
8:51 PM52.0 °F43.0 °F71 %30.40 in10.0 miSE (130°)5.8 mphScattered Clouds
9:51 PM51.1 °F44.1 °F77 %30.40 in10.0 miSouth (170°)4.6 mphScattered Clouds
10:51 PM51.1 °F44.1 °F77 %30.39 in10.0 miSSE (150°)4.6 mphScattered Clouds
11:51 PM51.1 °F44.1 °F77 %30.38 in10.0 miCalmScattered Clouds
Hourly data recorded from KEWR, located miles away from Staten Island, New York







STORIES FROM OUR PARTNERS